User: anonymous   Login
Location: Unspecified
(0.0000°N, 0.0000°E)
Time: 01:57:35
(UTC+00:00)
Language:

AIST 2 - Orbit

View from above orbital plane
View from above orbital plane
View from above satellite
View from above satellite

Ground track
Ground track

The orbit data is extracted from the following two-line orbital elements,

1 39133U 13015D   17147.95832250 +.00000137 +00000-0 +22379-4 0  9991
2 39133 064.8736 349.4854 0036665 285.8022 073.9057 15.04273308224861
Epoch (UTC): 27 May 2017 22:59:59
Eccentricity: 0.0036665
inclination: 64.8736°
perigee height: 528 km
apogee height: 579 km
right ascension of ascending node: 349.4854°
argument of perigee: 285.8022°
revolutions per day: 15.04273308
mean anomaly at epoch: 73.9057°
orbit number at epoch: 22486

The dashed part of the orbit path shows where the satellite is in the earth's shadow,  

DLR